Location: Unspecified
(0.0000°N, 0.0000°E)
Time: 13:02:44
(UTC+00:00)

S-56A Canister/Altair - Pass Details

Date: 29 May 2024
Orbit: 637 x 2489 km, 38.9° (Epoch: 17 June)

Event Time Altitude Azimuth Distance (km) Brightness Sun altitude
Rises 02:58:40 0° 258° (WSW) 5,858 - -40.8°
Reaches altitude 10° 03:03:08 10° 268° (W) 5,006 - -39.8°
Exits shadow 03:12:31 28° 307° (NW) 3,835 10.8 -37.8°
Maximum altitude 03:15:05 30° 322° (NW) 3,755 10.8 -37.2°
Drops below altitude 10° 03:26:49 10° 18° (NNE) 4,847 12.0 -34.6°
Sets 03:31:09 0° 29° (NNE) 5,646 12.7 -33.6°
